Showing default

CHINASAT 4A, 60606

Orbit data source: Space-Track

CHINASAT 4A, 60606 is a payload satellite owned by PLA SSF (CN) in GEO that was launched on Thu, 22 Aug 2024 UTC via a CHANG ZHENG 7A launch vehicle from the Wenchang Satellite Launch Center (WSC). Payloads include a variety of satellites, spacecraft, and rockets equipped with specific instruments for various scientific and technological missions. These include communications satellites like Starlink; space stations such as the ISS; scientific satellites like the Hubble; Earth observation satellites from companies like Planet Labs, Umbra, and HawkEye 360; GPS; miniature CubeSats for education and research; and military/defense satellites.

Not visible in the next 10 days
CHINASAT 4A details
Identifier
60606, 2024-151A
Orbit
GEO
Last TLE update17 hours ago
Origin
Flag of CNPLA SSF (CN / PRC)
ManufacturerSISE
MissionOperational spacecraft
Bus & MotorFY-4?, LAE
Mass~5,000 kg wet, ~2,500 kg dry
Launch date (UTC)
2024-08-22 (5 months ago)
Launch vehicle
CHANG ZHENG 7A
Launch site
Wenchang Satellite Launch Center (WSC)
Object type
Payload
Rocket body
Debris
Shape & HBRUnknown
Radar Cross SectionRCS unknown

Expand to show TLE details & history

TLE from 17 hours ago
0 CHINASAT 4A
1 60606U 24151A   25014.63761589 -.00000361  00000-0  00000-0 0  9999
2 60606   2.6537 276.7185 0003212  22.1054 163.2294  1.00268958  1558
Epoch: 2025-01-14T15:18Z
Definitive object data (Epoch: 2025-01-14T15:18:10.012Z)
Latitude-0.22502°
Longitude118.20465°
Altitude35,799.953 km
Speed3.074 km/s
True Right ascension06h 48m 21s
True Declination0° 13' 29"
Sunlit
Object was in daylight at TLE epoch
Visualization TLE readout
Latitude2.61826°
Longitude16.04374°
Altitude35,780.119 km
Speed3.075 km/s
Apparent Right ascension23h 42m 52s
Apparent Declination-2° 41' 02"
Sunlit
Object is in daylight
Visualization observer readout
Local Sidereal Time09:06:22
Azimuth306.2° NW
Elevation-38.638°
Doppler factor1
Orbital elements
Apogee altitude35,801.998 km
Perigee altitude35,774.911 km
Semi-major axis42,166.591 km
Eccentricity0.0003212
Inclination2.6537°
RAAN276.7185°
Arg. of periapsis22.1054°
True anomaly163.24002°
Mean anomaly163.2294°
Eccentric anomaly163.23471°
Mean motion0.25066 °/min
BSTARUnknown
Orbital period1436.19 mins
Loading historical data...
60606 neighbors
Authenticating...
Loading maneuver chart data...
Loading historical data...
Loading historical data...
Loading historical data...
Loading historical data...
Loading historical data...
Loading historical data...
Loading historical data...
Other satellites on launch #151 in the year 2024 (2024-08-22 UTC)

CHINASAT 4A Visibility forecast

Observer location: undefined°, undefined

CHINASAT 4A is not visible in the next 10 days
Span
Click to sort rows by Start time (UTC) header in descending order
Start Az.
Max El. time (UTC)
Max El. Az.
Max El.
End time (UTC)
End Az.
|